When you browse on this site, cookies collect data to enhance your experience and personalize the content and advertising you see.
Visit our Privacy Policy to learn more. By continuing to use the site, you agree to this use of cookies and data.
  • In Spain
  • List of Countries
  • For 7 days
  • Water Temperature
  • Satellite Maps
  • Weather Map
  • Weather Widgets
  • user-avatar
    Login

    Hourly Weather Maracaibo

    Today, 17 February, Sunday

    Time Temperature Precipitation Wind Pressure Humidity
    00:00 +29°C° 0 mm 4 mps 753 mmHg 71%
    01:00 +29°C° 0 mm 4 mps 753 mmHg 74%
    02:00 +28°C° 0 mm 4 mps 753 mmHg 74%
    03:00 +28°C° 0 mm 4 mps 752 mmHg 74%
    04:00 +28°C° 0 mm 4 mps 752 mmHg 74%
    05:00 +28°C° 0 mm 3 mps 753 mmHg 74%
    06:00 +28°C° 0 mm 3 mps 753 mmHg 73%
    07:00 +28°C° 0 mm 3 mps 754 mmHg 73%
    08:00 +30°C° 0 mm 3 mps 754 mmHg 65%
    09:00 +32°C° 0 mm 2 mps 754 mmHg 56%
    10:00 +35°C° 0 mm 2 mps 755 mmHg 48%
    11:00 +36°C° 0 mm 2 mps 754 mmHg 45%
    12:00 +37°C° 0 mm 2 mps 753 mmHg 42%
    13:00 +38°C° 0 mm 3 mps 752 mmHg 39%
    14:00 +37°C° 0 mm 3 mps 752 mmHg 41%
    15:00 +37°C° 0 mm 4 mps 751 mmHg 44%
    16:00 +36°C° 0 mm 5 mps 751 mmHg 46%
    17:00 +35°C° 0 mm 5 mps 751 mmHg 50%
    18:00 +34°C° 0 mm 6 mps 752 mmHg 54%
    19:00 +32°C° 0 mm 6 mps 752 mmHg 58%
    20:00 +32°C° 0 mm 6 mps 753 mmHg 57%
    21:00 +32°C° 0 mm 6 mps 754 mmHg 56%
    22:00 +32°C° 0 mm 6 mps 754 mmHg 55%
    23:00 +32°C° 0 mm 5 mps 754 mmHg 55%

    Tomorrow, 18 February, Monday

    Time Temperature Precipitation Wind Pressure Humidity
    00:00 +30°C° 0 mm 5 mps 754 mmHg 56%
    01:00 +30°C° 0 mm 5 mps 754 mmHg 56%
    02:00 +29°C° 0 mm 5 mps 754 mmHg 60%
    03:00 +28°C° 0 mm 4 mps 753 mmHg 64%
    04:00 +28°C° 0 mm 4 mps 753 mmHg 67%
    05:00 +28°C° 0 mm 4 mps 754 mmHg 67%
    06:00 +28°C° 0 mm 4 mps 754 mmHg 66%
    07:00 +28°C° 0 mm 4 mps 755 mmHg 65%
    08:00 +30°C° 0 mm 4 mps 755 mmHg 59%
    09:00 +32°C° 0 mm 4 mps 756 mmHg 53%
    10:00 +34°C° 0 mm 3 mps 756 mmHg 46%
    11:00 +34°C° 0 mm 3 mps 755 mmHg 46%
    12:00 +35°C° 0 mm 3 mps 754 mmHg 45%
    13:00 +35°C° 0 mm 3 mps 754 mmHg 45%
    14:00 +35°C° 0 mm 4 mps 753 mmHg 46%
    15:00 +35°C° 0 mm 5 mps 753 mmHg 47%
    16:00 +34°C° 0 mm 6 mps 752 mmHg 48%
    17:00 +33°C° 0 mm 6 mps 753 mmHg 52%
    18:00 +32°C° 0 mm 7 mps 753 mmHg 56%
    19:00 +30°C° 0 mm 7 mps 754 mmHg 60%
    20:00 +30°C° 0 mm 7 mps 754 mmHg 60%
    21:00 +29°C° 0 mm 7 mps 755 mmHg 60%
    22:00 +29°C° 0 mm 6 mps 755 mmHg 60%
    23:00 +29°C° 0 mm 6 mps 755 mmHg 61%

    Day after tomorrow, 19 February, Tuesday

    Time Temperature Precipitation Wind Pressure Humidity
    00:00 +28°C° 0 mm 6 mps 755 mmHg 63%
    01:00 +28°C° 0 mm 5 mps 754 mmHg 64%
    02:00 +28°C° 0 mm 5 mps 754 mmHg 65%
    03:00 +27°C° 0 mm 5 mps 754 mmHg 67%
    04:00 +27°C° 0 mm 4 mps 754 mmHg 68%
    05:00 +27°C° 0 mm 4 mps 754 mmHg 67%
    06:00 +27°C° 0 mm 4 mps 754 mmHg 66%
    07:00 +28°C° 0 mm 4 mps 755 mmHg 65%
    08:00 +29°C° 0 mm 3 mps 755 mmHg 60%
    09:00 +30°C° 0 mm 3 mps 755 mmHg 55%
    10:00 +32°C° 0 mm 2 mps 756 mmHg 49%
    11:00 +34°C° 0 mm 2 mps 755 mmHg 47%
    12:00 +34°C° 0 mm 2 mps 754 mmHg 45%
    13:00 +35°C° 0 mm 3 mps 753 mmHg 43%
    14:00 +35°C° 0 mm 3 mps 753 mmHg 45%
    15:00 +35°C° 0 mm 4 mps 752 mmHg 47%
    16:00 +34°C° 0 mm 5 mps 751 mmHg 49%
    17:00 +33°C° 0 mm 5 mps 752 mmHg 53%
    18:00 +32°C° 0 mm 6 mps 752 mmHg 57%
    19:00 +30°C° 0 mm 6 mps 753 mmHg 62%
    20:00 +30°C° 0 mm 6 mps 753 mmHg 62%
    21:00 +29°C° 0 mm 6 mps 754 mmHg 63%
    22:00 +29°C° 0 mm 5 mps 754 mmHg 64%
    23:00 +29°C° 0 mm 5 mps 754 mmHg 64%

    20 February, Wednesday

    Time Temperature Precipitation Wind Pressure Humidity
    00:00 +29°C° 0 mm 5 mps 754 mmHg 65%
    01:00 +28°C° 0 mm 4 mps 753 mmHg 65%
    02:00 +28°C° 0 mm 4 mps 753 mmHg 66%
    03:00 +28°C° 0 mm 4 mps 753 mmHg 67%
    04:00 +27°C° 0 mm 4 mps 753 mmHg 68%
    05:00 +28°C° 0 mm 4 mps 753 mmHg 67%
    06:00 +28°C° 0 mm 4 mps 754 mmHg 66%
    07:00 +28°C° 0 mm 4 mps 754 mmHg 65%
    08:00 +30°C° 0 mm 3 mps 754 mmHg 59%
    09:00 +31°C° 0 mm 3 mps 755 mmHg 53%
    10:00 +34°C° 0 mm 3 mps 755 mmHg 47%
    11:00 +34°C° 0 mm 3 mps 754 mmHg 45%
    12:00 +35°C° 0 mm 3 mps 753 mmHg 43%
    13:00 +36°C° 0 mm 3 mps 752 mmHg 41%
    14:00 +36°C° 0 mm 3 mps 751 mmHg 42%
    15:00 +35°C° 0 mm 4 mps 751 mmHg 44%
    16:00 +35°C° 0 mm 4 mps 750 mmHg 45%
    17:00 +34°C° 0 mm 5 mps 751 mmHg 49%
    18:00 +33°C° 0 mm 5 mps 751 mmHg 53%
    19:00 +32°C° 0 mm 5 mps 752 mmHg 57%
    20:00 +32°C° 0 mm 5 mps 752 mmHg 58%
    21:00 +30°C° 0 mm 5 mps 753 mmHg 58%
    22:00 +30°C° 0 mm 5 mps 754 mmHg 58%
    23:00 +30°C° 0 mm 5 mps 753 mmHg 58%

    21 February, Thursday

    Time Temperature Precipitation Wind Pressure Humidity
    00:00 +29°C° 0 mm 4 mps 753 mmHg 58%
    01:00 +29°C° 0 mm 4 mps 753 mmHg 59%
    02:00 +28°C° 0 mm 4 mps 753 mmHg 59%
    03:00 +28°C° 0 mm 4 mps 753 mmHg 60%
    04:00 +28°C° 0 mm 4 mps 753 mmHg 60%
    05:00 +28°C° 0 mm 4 mps 753 mmHg 60%
    06:00 +28°C° 0 mm 3 mps 754 mmHg 60%
    07:00 +28°C° 0 mm 3 mps 754 mmHg 61%
    08:00 +29°C° 0 mm 3 mps 754 mmHg 56%
    09:00 +31°C° 0 mm 2 mps 755 mmHg 51%
    10:00 +34°C° 0 mm 2 mps 755 mmHg 45%
    11:00 +35°C° 0 mm 2 mps 754 mmHg 43%
    12:00 +36°C° 0 mm 2 mps 753 mmHg 41%
    13:00 +37°C° 0 mm 2 mps 752 mmHg 39%
    14:00 +36°C° 0 mm 3 mps 752 mmHg 41%
    15:00 +36°C° 0 mm 4 mps 751 mmHg 43%
    16:00 +35°C° 0 mm 5 mps 751 mmHg 45%
    17:00 +34°C° 0 mm 6 mps 751 mmHg 49%
    18:00 +33°C° 0 mm 6 mps 752 mmHg 53%
    19:00 +30°C° 0 mm 7 mps 752 mmHg 57%
    20:00 +30°C° 0 mm 6 mps 753 mmHg 57%
    21:00 +30°C° 0 mm 6 mps 753 mmHg 58%
    22:00 +30°C° 0 mm 6 mps 754 mmHg 59%
    23:00 +29°C° 0 mm 5 mps 753 mmHg 60%

    22 February, Friday

    Time Temperature Precipitation Wind Pressure Humidity
    00:00 +29°C° 0 mm 4 mps 753 mmHg 61%
    01:00 +29°C° 0 mm 3 mps 753 mmHg 61%
    02:00 +28°C° 0 mm 3 mps 753 mmHg 63%
    03:00 +28°C° 0 mm 3 mps 753 mmHg 65%
    04:00 +28°C° 0 mm 3 mps 753 mmHg 66%
    05:00 +28°C° 0 mm 3 mps 753 mmHg 66%
    06:00 +28°C° 0 mm 3 mps 754 mmHg 65%
    07:00 +28°C° 0 mm 3 mps 754 mmHg 65%
    08:00 +30°C° 0 mm 3 mps 755 mmHg 59%
    09:00 +31°C° 0 mm 3 mps 755 mmHg 54%
    10:00 +34°C° 0 mm 2 mps 755 mmHg 48%
    11:00 +35°C° 0 mm 3 mps 754 mmHg 46%
    12:00 +36°C° 0 mm 3 mps 753 mmHg 43%
    13:00 +36°C° 0 mm 3 mps 753 mmHg 41%
    14:00 +36°C° 0 mm 4 mps 752 mmHg 44%
    15:00 +35°C° 0 mm 5 mps 752 mmHg 46%
    16:00 +35°C° 0 mm 6 mps 751 mmHg 49%
    17:00 +34°C° 0 mm 6 mps 752 mmHg 54%
    18:00 +32°C° 0 mm 6 mps 752 mmHg 59%
    19:00 +30°C° 0 mm 7 mps 753 mmHg 64%
    20:00 +30°C° 0 mm 7 mps 753 mmHg 63%
    21:00 +30°C° 0 mm 6 mps 754 mmHg 63%
    22:00 +30°C° 0 mm 6 mps 754 mmHg 62%
    23:00 +29°C° 0 mm 5 mps 754 mmHg 62%
    Show more